Погода в Здзешовице

Польша     50°25′35″N   18°06′52″E
темп.,
°C
ветер,
м/с
пор.,
м/с
влажн.,
%
обл.,
%
осадки,
мм/ч
давл.,
гПа
погр.,
м
25 февраля, чт
чт2501:00+7ююв22770 0.0 103322
04:00+6ююв22760 0.0 103122
07:00+5ю12790 0.0 103122
10:00+11ю12610 0.0 1030141
13:00+16ю12490 0.0 1029315
16:00+14ю34610 0.0 1028111
19:00+9ю23790 0.0 102938
22:00+8ю12830 0.0 102922
26 февраля, пт
пт2601:00+7ююз11830 0.0 102922
04:00+6з12840 0.0 102822
07:00+5з12870 0.0 102922
10:00+10зсз237941 0.0 1028272
13:00+12зсз227360 0.0 1027469
16:00+11ссз358399 0.0 1026485
19:00+7с588699 1.1 1027598
22:00+6сз3785100 0.5 1028671
27 февраля, сб
сб2701:00+4сз4109287 0.5 1029384
04:00+3сз499245 0.0 1029435
07:00+2зсз4119340 0.1 1030446
10:00+4сз6107953 0.0 1031823
13:00+3сз698776 0.1 1032739
16:00+3сз5885100 0.0 1032616
19:00+3сз4881100 0.1 1033598
22:00+3сз3679100 0.1 1034348
28 февраля, вс
вс2801:00+3зсз378398 0.1 1035342
04:000сз389564 0.0 1034252
07:00−1сз379848 0.0 1034239
10:00+3сз358174 0.0 1034499
13:00+6сз346385 0.0 1034914
16:00+6ссз346184 0.0 1033986
19:00+3с227491 0.0 103439
22:00+1ссз12790 0.0 103522
1 марта, пн
пн101:000с11840 0.0 103621
04:000с118511 0.0 103621
07:000ссв11855 0.0 103721
10:00+4в22670 0.0 1038573
13:00+6в23599 0.0 10381009
16:00+6в22615 0.0 1038797
19:00+2в24793 0.0 103993
22:00+1вюв35830 0.0 1040107